Location: Hawks Ness
(60.2333°N, 1.1667°W)
Time: 14:57:52
(UTC+00:00)

Cosmos 1726 - Visible Passes

Search period start: 25 January 2020 00:00
Search period end: 04 February 2020 00:00
Orbit: 481 x 501 km, 82.5° (Epoch: 25 January)

Date Brightness Start Highest point End Pass type
(mag) Time Alt. Az. Time Alt. Az. Time Alt. Az.
25 Jan 4.0 04:48:01 26° ESE 04:48:57 29° E 04:52:10 10° NNE visible
25 Jan 2.5 06:22:36 26° WSW 06:24:06 39° WNW 06:27:35 10° N visible
25 Jan 5.5 17:39:22 10° WNW 17:40:27 11° W 17:41:32 10° W visible
26 Jan 4.5 04:26:36 22° E 04:26:36 22° E 04:29:22 10° NE visible
26 Jan 2.1 06:01:10 51° W 06:01:25 52° WNW 06:05:02 10° N visible
26 Jan 4.1 07:36:25 10° WNW 07:37:33 11° NW 07:38:41 10° NNW visible
26 Jan 5.2 17:15:57 10° NW 17:18:01 15° W 17:20:05 10° WSW visible
27 Jan 5.0 04:04:51 16° ENE 04:04:51 16° ENE 04:06:27 10° NE visible
27 Jan 2.2 05:39:23 56° NNW 05:39:23 56° NNW 05:42:27 10° N visible
27 Jan 3.8 07:13:56 13° WNW 07:14:44 14° NW 07:16:41 10° NNW visible
27 Jan 5.0 16:52:56 10° NW 16:55:34 19° W 16:58:12 10° SW visible
28 Jan 5.4 03:42:55 11° ENE 03:42:55 11° ENE 03:43:21 10° NE visible
28 Jan 3.1 05:17:27 39° NNE 05:17:27 39° NNE 05:19:51 10° NNE visible
28 Jan 3.6 06:51:58 17° NW 06:51:58 17° NW 06:54:25 10° NNW visible
29 Jan 3.8 04:55:23 27° NNE 04:55:23 27° NNE 04:57:12 10° NNE visible
29 Jan 3.6 06:29:55 20° NW 06:29:55 20° NW 06:32:02 10° N visible
30 Jan 4.4 04:33:14 20° NNE 04:33:14 20° NNE 04:34:32 10° NNE visible
30 Jan 3.6 06:07:45 21° NNW 06:07:45 21° NNW 06:09:35 10° N visible
31 Jan 4.9 04:11:01 15° NE 04:11:01 15° NE 04:11:48 10° NNE visible
31 Jan 3.8 05:45:33 21° NNW 05:45:33 21° NNW 05:47:06 10° N visible
01 Feb 5.3 03:48:46 11° NE 03:48:46 11° NE 03:49:02 10° NNE visible
01 Feb 4.0 05:23:17 20° N 05:23:17 20° N 05:24:34 10° N visible
02 Feb 4.3 05:01:00 18° N 05:01:00 18° N 05:02:00 10° N visible
02 Feb 4.3 06:35:30 11° NNW 06:35:30 11° NNW 06:36:00 10° NNW visible
03 Feb 4.6 04:38:40 15° NNE 04:38:40 15° NNE 04:39:24 10° NNE visible
03 Feb 4.3 06:13:11 12° NNW 06:13:11 12° NNW 06:13:49 10° NNW visible
